"Pseudo-MPEC" for X76458

Created 2021 Dec 4 2:07:30 UT using Find_Orb

Click here for an explanation of pseudo-MPECs

 
 Astrometry: 
     X76458   C2021 11 133?Qc0CLY58OM/V?x('AstrometryOv`!.8T,^l7*redacted;Q05D29
     X76458   C2021 11 13;AYAclickTH3)Ov_ntgvI6JLO$X3qP$U(5jw0#dL+H!'-JOKm6PsD29
     X76458   C2021 11 13eT+R%\W4F%;0(3t.hererBdyfor*4!Y4'$WexplanationSje^vED29

Station data:
(D29) Purple Mountain Observatory, XuYi Station  (N32.734366 E118.463900)
   China.  Observers H. B. Zhao, B. Li, G. Zhaori, R. Q. Hong, L. F. Hu.
   Measurers H. B. Zhao, B. Li. H. Lu, G. Zhaori. 1.04-m f/1.8 Schmidt + CCD.

Orbital elements:  X76458
   Perihelion 2021 Oct 30.386219 +/- 43.6845 TT =  9:16:09 (JD 2459517.886219)
Epoch 2021 Nov 14.0 TT = JDT 2459532.5   Earth MOID: 0.3596   Ma: 0.0624
M   4.22663928 +/- 16.527958        (J2000 ecliptic)          AutoNEOCP
n   0.28922285 +/- 0.257763         Peri.  286.72476 +/- 97.529466
a   2.26454512 +/- 1.34546          Node   115.30104 +/- 49.575613
e   0.4147078 +/- 0.247869          Incl.    6.99466 +/- 4.5552972
P   3.41                   H 22.4   G  0.15   U 11.8  SR
q 1.32542055 +/- 0.344768    Q 3.20366969 +/- 73.3513
From 3 observations 2021 Nov. 13 (50.9 min); mean residual 0".30
Residuals in arcseconds: 
211113 D29  .02-  .30+    211113 D29  .05+  .59-    211113 D29  .02-  .30+    

Ephemerides (geocentric):
Date (UTC) HH   RA              Dec         delta   r     elong  mag " sig PA
---- -- -- --  -------------   -----------  ------ ------ -----  --- ---- ---
2021 12 04 02  04 03 39.420   +02 40 41.92  .40069 1.3663 158.4 21.9  69d 177
2021 12 04 03  04 03 39.230   +02 41 30.91  .40082 1.3664 158.4 21.9  69d 177
2021 12 04 04  04 03 39.042   +02 42 19.93  .40095 1.3665 158.4 21.9  69d 177
2021 12 04 05  04 03 38.855   +02 43 08.98  .40108 1.3666 158.4 21.9  70d 178
2021 12 04 06  04 03 38.670   +02 43 58.05  .40120 1.3667 158.4 21.9  70d 178
2021 12 04 07  04 03 38.488   +02 44 47.15  .40133 1.3668 158.4 21.9  70d 178
2021 12 04 08  04 03 38.307   +02 45 36.27  .40146 1.3669 158.4 21.9  70d 178
2021 12 04 09  04 03 38.128   +02 46 25.42  .40159 1.3670 158.4 21.9  70d 178
2021 12 04 10  04 03 37.951   +02 47 14.60  .40172 1.3671 158.4 21.9  71d 178
2021 12 04 11  04 03 37.776   +02 48 03.80  .40185 1.3672 158.3 21.9  71d 178
2021 12 04 12  04 03 37.602   +02 48 53.03  .40198 1.3673 158.3 21.9  71d 178
2021 12 04 13  04 03 37.431   +02 49 42.28  .40211 1.3674 158.3 21.9  71d 178
2021 12 04 14  04 03 37.262   +02 50 31.55  .40224 1.3675 158.3 21.9  71d 178
2021 12 04 15  04 03 37.094   +02 51 20.86  .40237 1.3676 158.3 21.9  71d 178
2021 12 04 16  04 03 36.929   +02 52 10.18  .40251 1.3677 158.3 21.9  71d 178
2021 12 04 17  04 03 36.765   +02 52 59.54  .40264 1.3678 158.3 21.9  71d 178
2021 12 04 18  04 03 36.603   +02 53 48.91  .40277 1.3679 158.3 21.9  71d 178
2021 12 04 19  04 03 36.444   +02 54 38.31  .40290 1.3680 158.2 21.9  71d 178
2021 12 04 20  04 03 36.286   +02 55 27.74  .40303 1.3680 158.2 21.9  71d 179
2021 12 04 21  04 03 36.131   +02 56 17.19  .40316 1.3681 158.2 21.9  71d 178
2021 12 04 22  04 03 35.977   +02 57 06.67  .40330 1.3682 158.2 21.9  71d 178
2021 12 04 23  04 03 35.825   +02 57 56.16  .40343 1.3683 158.2 21.9  71d 178
2021 12 05 00  04 03 35.676   +02 58 45.69  .40356 1.3684 158.2 21.9  71d 178
2021 12 05 01  04 03 35.528   +02 59 35.24  .40370 1.3685 158.2 21.9  71d 178
2021 12 05 02  04 03 35.382   +03 00 24.81  .40383 1.3686 158.1 21.9  71d 178
2021 12 05 03  04 03 35.239   +03 01 14.40  .40397 1.3687 158.1 21.9  71d 179
2021 12 05 04  04 03 35.097   +03 02 04.02  .40410 1.3688 158.1 21.9  71d 179
2021 12 05 05  04 03 34.958   +03 02 53.67  .40423 1.3689 158.1 21.9  71d 179
2021 12 05 06  04 03 34.821   +03 03 43.33  .40437 1.3690 158.1 21.9  71d 179
2021 12 05 07  04 03 34.685   +03 04 33.02  .40450 1.3691 158.1 21.9  71d 179
2021 12 05 08  04 03 34.552   +03 05 22.74  .40464 1.3692 158.1 21.9  71d 179
2021 12 05 09  04 03 34.421   +03 06 12.47  .40477 1.3693 158.1 21.9  71d 179
2021 12 05 10  04 03 34.292   +03 07 02.23  .40491 1.3694 158.0 21.9  71d 179
2021 12 05 11  04 03 34.165   +03 07 52.02  .40505 1.3695 158.0 22.0  71d 179
2021 12 05 12  04 03 34.040   +03 08 41.83  .40518 1.3696 158.0 22.0  71d 179
2021 12 05 13  04 03 33.917   +03 09 31.66  .40532 1.3697 158.0 22.0  71d 179
2021 12 05 14  04 03 33.796   +03 10 21.51  .40546 1.3698 158.0 22.0  71d 179
2021 12 05 15  04 03 33.678   +03 11 11.38  .40559 1.3699 158.0 22.0  71d 179
2021 12 05 16  04 03 33.562   +03 12 01.28  .40573 1.3700 158.0 22.0  71d 179
2021 12 05 17  04 03 33.447   +03 12 51.20  .40587 1.3701 157.9 22.0  72d 179
2021 12 05 18  04 03 33.335   +03 13 41.15  .40601 1.3702 157.9 22.0  72d 179
2021 12 05 19  04 03 33.225   +03 14 31.11  .40614 1.3703 157.9 22.0  72d 179
2021 12 05 20  04 03 33.118   +03 15 21.10  .40628 1.3704 157.9 22.0  72d 179
2021 12 05 21  04 03 33.012   +03 16 11.11  .40642 1.3705 157.9 22.0  72d 179
2021 12 05 22  04 03 32.909   +03 17 01.14  .40656 1.3706 157.9 22.0  72d 179
2021 12 05 23  04 03 32.807   +03 17 51.19  .40670 1.3707 157.9 22.0  72d 179
2021 12 06 00  04 03 32.708   +03 18 41.27  .40684 1.3708 157.8 22.0  72d 179
2021 12 06 01  04 03 32.612   +03 19 31.37  .40698 1.3709 157.8 22.0  72d 179